Flag for U.S.A. Weather past 2 weeks in Salt Lake City, Utah, U.S.A.

Now
44 °F

Passing clouds.


Feels Like: 43 °F
Forecast: 41 / 62 °F
Wind: 3 mph from Northwest

Location: Salt Lake City International Airport

Current Time: Apr 27, 2015 at 3:03:50 AM

Latest Report: Apr 27, 2015 at 1:53 AM


Visibility: 10 mi

Pressure: 30.12 "Hg

Humidity: 73%

Dew point: 36 °F

Location of Salt Lake CityLocation

Historic Weather in Salt Lake City — Graph

°F

Salt Lake City temperature yesterday

Maximum temperature yesterday: 51 °F (at 5:53 PM)
Minimum temperature yesterday: 39 °F (at 5:03 AM)
Average temperature yesterday: 45 °F

Past Weeks' High & Low Weather Summary

 TemperatureHumidityPressure
High76 °F (Apr 14, 1:53 PM)100% (Apr 14, 8:53 PM)30.18 "Hg (Apr 14, 8:53 PM)
Low29 °F (Apr 15, 6:53 AM)9% (Apr 14, 12:53 PM)29.44 "Hg (Apr 14, 1:53 PM)
Average53 °F50%29.88 "Hg
* Reported Apr 12 1:53 AM — Apr 27 1:53 AM, Salt Lake City, Weather by CustomWeather, © 2015

Note: Actual official high and low records may vary slightly from our data, if they occured in-between our weather recording intervals... More about our weather records

Advertising

Salt Lake City weather history for previous 24 hours

 ConditionsComfort  
Time TempWeatherWind HumidityBarometerVisibility
1:53 AM
Mon, Apr 27
44 °FPassing clouds.3 mph73%30.12 "Hg10 mi
12:53 AM47 °FPassing clouds.8 mph66%30.10 "Hg10 mi
11:53 PM
Sun, Apr 26
49 °FOvercast.3 mph66%30.09 "Hg10 mi
10:53 PM49 °FOvercast.3 mph64%30.09 "Hg10 mi
9:53 PM49 °FPassing clouds.No wind66%30.08 "Hg10 mi
8:53 PM49 °FPartly sunny.5 mph64%30.06 "Hg10 mi
7:53 PM50 °FPartly sunny.5 mph57%30.04 "Hg10 mi
6:53 PM51 °FBroken clouds.No wind52%30.02 "Hg10 mi
5:53 PM51 °FMostly cloudy.8 mph52%30.02 "Hg10 mi
4:53 PM49 °FMostly cloudy.10 mph57%30.01 "Hg10 mi
3:53 PM48 °FOvercast.14 mph54%30.00 "Hg10 mi
2:53 PM48 °FPartly sunny.14 mph59%29.99 "Hg10 mi
1:53 PM48 °FPartly sunny.17 mph56%29.98 "Hg10 mi
12:53 PM47 °FPartly sunny.17 mph59%29.96 "Hg10 mi
11:53 AM47 °FBroken clouds.16 mph61%29.95 "Hg10 mi
10:53 AM46 °FBroken clouds.12 mph66%29.93 "Hg10 mi
9:53 AM43 °FBroken clouds.7 mph74%29.92 "Hg10 mi
8:53 AM40 °FLight rain. Broken clouds.8 mph86%29.91 "Hg10 mi
7:53 AM40 °FLight rain. Mostly cloudy.13 mph86%29.87 "Hg10 mi
6:53 AM40 °FLight rain. Mostly cloudy.20 mph83%29.84 "Hg10 mi
6:02 AM39 °FLight rain. Mostly cloudy.21 mph89%29.84 "Hg8 mi
5:03 AM39 °FRain. Fog.26 mph89%29.82 "Hg6 mi
3:53 AM41 °FLight rain. Mostly cloudy.22 mph89%29.72 "Hg8 mi
Weather by CustomWeather, © 2015

See weather overviewHow to use our weather pages